カタログに戻る

COSMOS 2414

運用中ナビゲーションPO
NORAD 28521·PAYLOAD·🇷🇺 Russia

打ち上げ Jan 20, 2005 から Plesetsk Cosmodrome

Loading…

次のパス (今後24時間)

TLE

最新Source: Space-Track

元期: Sep 14, 2026, 22:18 UTC

1 28521U 05002A   26257.92960246  .00000067  00000-0  42349-4 0  9994
2 28521  82.9534 335.7677 0041465  74.2367 286.3363 13.87934035 96265

AllMySatでCOSMOS 2414をリアルタイム追跡

Download on the App Store